Regional Weather Roundup
Issued by NWS Sioux Falls, SD

Home | Current Version | Previous Version | Text Only | Print | Product List | Glossary On
Versions: 1 2 3 4 5 6 7 8 9 10 11 12 13 14 15 16 17 18 19 20 21 22 23 24 25 26 27 28 29 30 31 32 33 34 35 36 37 38 39 40 41 42 43 44 45 46 47 48 49 50
000
ASUS43 KFSD 302010
RWRFSD

WEATHER ROUNDUP FOR SE SOUTH DAKOTA/SW MINNESOTA/NW IOWA
NATIONAL WEATHER SERVICE SIOUX FALLS SD
200 PM CST FRI JAN 30 2015

NOTE: "FAIR" INDICATES FEW OR NO CLOUDS BELOW 12,000 FEET WITH NO
SIGNIFICANT WEATHER AND OR OBSTRUCTIONS TO VISIBILITY.


SDZ038>040-050-052>070-302100-
SOUTHEAST SOUTH DAKOTA

CITY           SKY/WX    TMP DP  RH WIND       PRES   REMARKS
CHAMBERLAIN    SUNNY     51  27  39 SW13      30.14F
HURON          SUNNY     40  28  62 S14       30.19F
MADISON        FAIR      32  32 100 S20       30.21F WCI  20
MITCHELL       SUNNY     44  29  55 S18       30.21F
SIOUX FALLS    PTSUNNY   36  26  67 S15G25    30.26F
WINNER         FAIR      54  25  32 SW16      30.14F
YANKTON        SUNNY     43  27  52 S16       30.26F
$$

MNZ071-072-080-081-089-090-097-098-302100-
SOUTHWEST MINNESOTA

CITY           SKY/WX    TMP DP  RH WIND       PRES   REMARKS
FAIRMONT       SUNNY     28  18  64 S14       30.36F WCI  17
JACKSON        SUNNY     32  21  64 S13       30.34F WCI  22
LUVERNE        SUNNY     32  27  80 S14       30.29F WCI  22
MARSHALL       SUNNY     32  21  64 S15       30.29F WCI  22
MONTEVIDEO     SUNNY     30  25  80 S14G20    30.28F WCI  20
PIPESTONE      SUNNY     30  27  86 S18       30.24F WCI  18
REDWOOD FALLS  PTSUNNY   26  19  74 S15       30.32F WCI  14
TRACY          SUNNY     32  24  74 S16       30.28F WCI  21
WINDOM         SUNNY     30  21  69 S13       30.31F WCI  20
WORTHINGTON    SUNNY     28  21  74 S14       30.31F WCI  17
$$

IAZ001>003-012>014-020>022-031-032-NEZ013-014-SDZ071-302100-
NORTHWEST IOWA

CITY           SKY/WX    TMP DP  RH WIND       PRES   REMARKS
CHEROKEE       SUNNY     32  24  72 S12       30.35F WCI  23
DENISON        SUNNY     34  21  60 S13       30.35F WCI  25
ESTHERVILLE    SUNNY     29  20  69 S14       30.36F WCI  18
LE MARS        SUNNY     34  25  69 S15       30.33F WCI  24
ORANGE CITY    SUNNY     34  25  69 S14       30.31F WCI  24
SHELDON        SUNNY     32  27  80 S14G20    30.31F WCI  22
SIOUX CITY     SUNNY     38  26  62 S14       30.34F
SPENCER        SUNNY     32  22  66 S10       30.35F WCI  24
STORM LAKE     SUNNY     32  23  69 S12       30.35F WCI  23
$$

ABBREVIATIONS USED IN REMARKS
   TC - TEMPERATURE IN CELSIUS
  WCI - WIND CHILL INDEX
   HX - HEAT INDEX
  VSB - VISIBILITY



USA.gov is the U.S. government's official web portal to all federal, state and local government web resources and services.